Time,TemperatureF,DewpointF,PressureIn,WindDirection,WindDirectionDegrees,WindSpeedMPH,WindSpeedGustMPH,Humidity,HourlyPrecipIn,Conditions,Clouds,dailyrainin,SoftwareType,DateUTC
2013-05-16 00:02:00,53.0,49.0,29.70,SE,135,0.0,0.0,86,0.00,,,0.00,,2013-05-16 04:02:00,
2013-05-16 00:12:00,53.0,49.0,29.70,SE,135,0.0,0.0,86,0.00,,,0.00,,2013-05-16 04:12:00,
2013-05-16 00:23:00,53.0,49.0,29.70,SSW,203,0.0,0.0,87,0.00,,,0.00,,2013-05-16 04:23:00,
2013-05-16 00:33:00,53.0,49.0,29.70,SE,135,0.0,0.0,87,0.00,,,0.00,,2013-05-16 04:33:00,
2013-05-16 00:42:00,53.0,49.0,29.70,SE,135,0.0,0.0,87,0.00,,,0.00,,2013-05-16 04:42:00,
2013-05-16 00:53:00,53.0,49.0,29.70,SE,135,0.0,0.0,87,0.00,,,0.00,,2013-05-16 04:53:00,
2013-05-16 01:02:00,53.0,49.0,29.70,SE,135,0.0,0.0,87,0.00,,,0.00,,2013-05-16 05:02:00,
2013-05-16 01:12:00,53.0,49.0,29.70,SE,135,0.0,0.0,87,0.00,,,0.00,,2013-05-16 05:12:00,
2013-05-16 01:22:00,52.0,48.0,29.69,SE,135,0.0,0.0,87,0.00,,,0.00,,2013-05-16 05:22:00,
2013-05-16 01:32:00,52.0,48.0,29.69,SE,135,0.0,0.0,87,0.00,,,0.00,,2013-05-16 05:32:00,
2013-05-16 01:42:00,52.0,48.0,29.69,SE,135,0.0,0.0,87,0.00,,,0.00,,2013-05-16 05:42:00,
2013-05-16 01:52:00,51.0,48.0,29.68,SSE,158,0.0,1.0,88,0.00,,,0.00,,2013-05-16 05:52:00,
2013-05-16 02:01:00,52.0,49.0,29.68,SSW,203,0.0,0.0,88,0.00,,,0.00,,2013-05-16 06:01:00,
2013-05-16 02:12:00,52.0,49.0,29.68,SSW,203,0.0,0.0,88,0.00,,,0.00,,2013-05-16 06:12:00,
2013-05-16 02:22:00,51.0,48.0,29.68,SSW,203,0.0,0.0,88,0.00,,,0.00,,2013-05-16 06:22:00,
2013-05-16 02:33:00,51.0,48.0,29.68,SSW,203,0.0,0.0,88,0.00,,,0.00,,2013-05-16 06:33:00,
2013-05-16 02:43:00,51.0,48.0,29.68,SSW,203,0.0,0.0,88,0.00,,,0.00,,2013-05-16 06:43:00,
2013-05-16 02:53:00,51.0,48.0,29.68,SW,225,0.0,0.0,88,0.00,,,0.00,,2013-05-16 06:53:00,
2013-05-16 03:02:00,51.0,48.0,29.68,SW,225,0.0,0.0,88,0.00,,,0.00,,2013-05-16 07:02:00,
2013-05-16 03:12:00,51.0,48.0,29.68,SW,225,0.0,0.0,88,0.00,,,0.00,,2013-05-16 07:12:00,
2013-05-16 03:24:00,51.0,48.0,29.69,SW,225,0.0,0.0,88,0.00,,,0.00,,2013-05-16 07:24:00,
2013-05-16 03:34:00,51.0,48.0,29.68,SW,225,0.0,0.0,88,0.00,,,0.00,,2013-05-16 07:34:00,
2013-05-16 03:44:00,51.0,48.0,29.68,SW,225,0.0,0.0,88,0.00,,,0.00,,2013-05-16 07:44:00,
2013-05-16 03:54:00,50.0,47.0,29.68,SW,225,0.0,0.0,88,0.00,,,0.00,,2013-05-16 07:54:00,
2013-05-16 04:03:00,50.0,47.0,29.68,SW,225,0.0,0.0,88,0.00,,,0.00,,2013-05-16 08:03:00,
2013-05-16 04:13:00,50.0,47.0,29.68,SW,225,0.0,0.0,88,0.00,,,0.00,,2013-05-16 08:13:00,
2013-05-16 04:24:00,50.0,47.0,29.68,SSW,203,0.0,0.0,89,0.00,,,0.00,,2013-05-16 08:24:00,
2013-05-16 04:34:00,50.0,47.0,29.68,SSW,203,0.0,0.0,89,0.00,,,0.00,,2013-05-16 08:34:00,
2013-05-16 04:45:00,50.0,47.0,29.68,SSW,203,0.0,0.0,89,0.00,,,0.00,,2013-05-16 08:45:00,
2013-05-16 04:55:00,50.0,47.0,29.68,SSW,203,0.0,0.0,89,0.00,,,0.00,,2013-05-16 08:55:00,
2013-05-16 05:04:00,50.0,47.0,29.68,SSW,203,0.0,0.0,89,0.00,,,0.00,,2013-05-16 09:04:00,
2013-05-16 05:14:00,50.0,47.0,29.68,SSW,203,0.0,0.0,89,0.00,,,0.00,,2013-05-16 09:14:00,
2013-05-16 05:24:00,50.0,47.0,29.68,SSW,203,0.0,0.0,89,0.00,,,0.00,,2013-05-16 09:24:00,
2013-05-16 05:35:00,50.0,47.0,29.68,SSW,203,0.0,0.0,89,0.00,,,0.00,,2013-05-16 09:35:00,
2013-05-16 05:45:00,50.0,47.0,29.68,SSW,203,0.0,0.0,89,0.00,,,0.00,,2013-05-16 09:45:00,
2013-05-16 05:55:00,50.0,47.0,29.68,SSW,203,0.0,0.0,89,0.00,,,0.00,,2013-05-16 09:55:00,
2013-05-16 06:05:00,50.0,47.0,29.68,SSW,203,0.0,0.0,89,0.00,,,0.00,,2013-05-16 10:05:00,
2013-05-16 06:15:00,49.0,46.0,29.69,SSW,203,0.0,0.0,89,0.00,,,0.00,,2013-05-16 10:15:00,
2013-05-16 06:24:00,49.0,46.0,29.69,SSW,203,0.0,0.0,89,0.00,,,0.00,,2013-05-16 10:24:00,
2013-05-16 06:36:00,49.0,46.0,29.69,SSW,203,0.0,0.0,89,0.00,,,0.00,,2013-05-16 10:36:00,
2013-05-16 06:45:00,49.0,46.0,29.69,SSW,203,0.0,0.0,89,0.00,,,0.00,,2013-05-16 10:45:00,
2013-05-16 06:56:00,50.0,47.0,29.70,SSW,203,0.0,0.0,90,0.00,,,0.00,,2013-05-16 10:56:00,
2013-05-16 07:05:00,51.0,48.0,29.70,SSW,203,0.0,0.0,90,0.00,,,0.00,,2013-05-16 11:05:00,
2013-05-16 07:14:00,51.0,48.0,29.70,SSW,203,0.0,0.0,90,0.00,,,0.00,,2013-05-16 11:14:00,
2013-05-16 07:25:00,52.0,49.0,29.70,SSW,203,0.0,0.0,89,0.00,,,0.00,,2013-05-16 11:25:00,
2013-05-16 07:35:00,53.0,50.0,29.70,SSW,203,0.0,0.0,89,0.00,,,0.00,,2013-05-16 11:35:00,
2013-05-16 07:57:00,55.0,52.0,29.71,WSW,248,0.0,0.0,88,0.00,,,0.00,,2013-05-16 11:57:00,
2013-05-16 08:06:00,55.0,52.0,29.71,WSW,248,0.0,0.0,88,0.00,,,0.00,,2013-05-16 12:06:00,
2013-05-16 08:23:00,57.0,53.0,29.72,WSW,248,0.0,0.0,85,0.00,,,0.00,,2013-05-16 12:23:00,
2013-05-16 08:35:00,57.0,52.0,29.72,WSW,248,0.0,0.0,84,0.00,,,0.00,,2013-05-16 12:35:00,
2013-05-16 08:53:00,58.0,52.0,29.74,SW,225,0.0,0.0,81,0.00,,,0.00,,2013-05-16 12:53:00,
2013-05-16 09:04:00,59.0,53.0,29.74,WSW,248,0.0,0.0,80,0.00,,,0.00,,2013-05-16 13:04:00,
2013-05-16 09:12:00,59.0,53.0,29.74,WSW,248,0.0,0.0,80,0.00,,,0.00,,2013-05-16 13:12:00,
2013-05-16 09:26:00,61.0,54.0,29.75,WNW,293,0.0,2.0,77,0.00,,,0.00,,2013-05-16 13:26:00,
2013-05-16 09:35:00,61.0,53.0,29.75,WSW,248,0.0,0.0,75,0.00,,,0.00,,2013-05-16 13:35:00,
2013-05-16 09:43:00,61.0,53.0,29.75,WSW,248,0.0,0.0,75,0.00,,,0.00,,2013-05-16 13:43:00,
2013-05-16 09:55:00,63.0,53.0,29.75,NNW,338,0.0,0.0,71,0.00,,,0.00,,2013-05-16 13:55:00,
2013-05-16 10:05:00,64.0,54.0,29.75,WNW,293,0.0,0.0,70,0.00,,,0.00,,2013-05-16 14:05:00,
2013-05-16 10:16:00,64.0,54.0,29.75,WNW,293,0.0,0.0,70,0.00,,,0.00,,2013-05-16 14:16:00,
2013-05-16 10:23:00,67.0,54.0,29.75,NE,45,0.0,4.0,64,0.00,,,0.00,,2013-05-16 14:23:00,
2013-05-16 10:37:00,68.0,54.0,29.75,NE,45,2.0,2.0,61,0.00,,,0.00,,2013-05-16 14:37:00,
2013-05-16 10:47:00,68.0,54.0,29.75,NE,45,2.0,2.0,61,0.00,,,0.00,,2013-05-16 14:47:00,
2013-05-16 10:56:00,70.0,52.0,29.75,NW,315,0.0,4.0,52,0.00,,,0.00,,2013-05-16 14:56:00,
2013-05-16 11:08:00,71.0,51.0,29.75,NW,315,0.0,6.0,50,0.00,,,0.00,,2013-05-16 15:08:00,
2013-05-16 11:17:00,71.0,51.0,29.75,NW,315,0.0,6.0,50,0.00,,,0.00,,2013-05-16 15:17:00,
2013-05-16 11:28:00,72.0,51.0,29.75,North,0,0.0,3.0,48,0.00,,,0.00,,2013-05-16 15:28:00,
2013-05-16 11:40:00,73.0,50.0,29.75,NW,315,0.0,7.0,45,0.00,,,0.00,,2013-05-16 15:40:00,
2013-05-16 11:50:00,74.0,49.0,29.75,North,351,5.0,8.0,41,0.00,,,0.00,,2013-05-16 15:50:00,
2013-05-16 12:00:00,74.0,49.0,29.75,North,351,5.0,8.0,41,0.00,,,0.00,,2013-05-16 16:00:00,
2013-05-16 12:09:00,74.0,50.0,29.75,ENE,68,0.0,2.0,43,0.00,,,0.00,,2013-05-16 16:09:00,
2013-05-16 12:20:00,74.0,50.0,29.75,ENE,68,0.0,2.0,43,0.00,,,0.00,,2013-05-16 16:20:00,
2013-05-16 12:30:00,76.0,50.0,29.73,SSW,203,0.0,6.0,40,0.00,,,0.00,,2013-05-16 16:30:00,
2013-05-16 12:40:00,77.0,-99.9,29.73,WSW,248,3.0,4.0,40,0.00,,,0.00,,2013-05-16 16:40:00,
2013-05-16 12:50:00,77.0,51.0,29.73,WSW,248,3.0,4.0,40,0.00,,,0.00,,2013-05-16 16:50:00,
2013-05-16 13:01:00,85.0,53.0,29.72,West,270,0.0,2.0,34,0.00,,,0.00,,2013-05-16 17:01:00,
2013-05-16 13:10:00,92.0,56.0,29.72,East,89,4.0,6.0,30,0.00,,,0.00,,2013-05-16 17:10:00,
2013-05-16 13:31:00,98.0,57.0,29.71,WSW,248,0.0,7.0,26,0.00,,,0.00,,2013-05-16 17:31:00,
2013-05-16 13:40:00,100.0,57.0,29.71,West,270,2.0,2.0,24,0.00,,,0.00,,2013-05-16 17:40:00,
2013-05-16 13:50:00,103.0,-99.9,29.70,WSW,248,0.0,5.0,22,0.00,,,0.00,,2013-05-16 17:50:00,
2013-05-16 14:00:00,-999.0,-99.9,29.70,WSW,248,0.0,5.0,22,0.00,,,0.00,,2013-05-16 18:00:00,
2013-05-16 14:10:00,104.0,58.0,29.70,WSW,248,3.0,5.0,22,0.00,,,0.00,,2013-05-16 18:10:00,
2013-05-16 14:30:00,-999.0,-99.9,29.69,WSW,248,2.0,3.0,19,0.00,,,0.00,,2013-05-16 18:30:00,
2013-05-16 14:40:00,-999.0,-99.9,29.69,WSW,248,0.0,8.0,19,0.00,,,0.00,,2013-05-16 18:40:00,
2013-05-16 14:51:00,-999.0,-99.9,29.69,WSW,248,0.0,8.0,19,0.00,,,0.00,,2013-05-16 18:51:00,
2013-05-16 15:00:00,-999.0,-99.9,29.68,WSW,248,5.0,7.0,19,0.00,,,0.00,,2013-05-16 19:00:00,
2013-05-16 15:10:00,109.0,58.0,29.68,WSW,248,0.0,1.0,19,0.00,,,0.00,,2013-05-16 19:10:00,
2013-05-16 15:30:00,106.0,55.0,29.68,WSW,248,0.0,5.0,19,0.00,,,0.00,,2013-05-16 19:30:00,
2013-05-16 15:40:00,101.0,-99.9,29.68,WSW,248,1.0,8.0,20,0.00,,,0.00,,2013-05-16 19:40:00,
2013-05-16 15:51:00,-999.0,-99.9,29.68,WSW,248,1.0,8.0,20,0.00,,,0.00,,2013-05-16 19:51:00,
2013-05-16 16:01:00,-999.0,-99.9,29.67,WSW,248,7.0,7.0,25,0.00,,,0.00,,2013-05-16 20:01:00,
2013-05-16 16:10:00,-999.0,-99.9,29.67,West,270,4.0,6.0,28,0.00,,,0.00,,2013-05-16 20:10:00,
2013-05-16 16:20:00,85.0,-99.9,29.67,WNW,293,0.0,4.0,30,0.00,,,0.00,,2013-05-16 20:20:00,
2013-05-16 16:30:00,85.0,-99.9,29.67,WNW,293,0.0,4.0,30,0.00,,,0.00,,2013-05-16 20:30:00,
2013-05-16 16:40:00,-999.0,-99.9,29.67,South,180,8.0,8.0,31,0.00,,,0.00,,2013-05-16 20:40:00,
2013-05-16 16:50:00,80.0,47.0,29.67,WSW,248,2.0,7.0,32,0.00,,,0.00,,2013-05-16 20:50:00,
2013-05-16 17:00:00,80.0,-99.9,29.67,WSW,248,2.0,7.0,32,0.00,,,0.00,,2013-05-16 21:00:00,
2013-05-16 17:10:00,79.0,-99.9,29.67,WSW,248,0.0,2.0,34,0.00,,,0.00,,2013-05-16 21:10:00,
2013-05-16 17:20:00,79.0,-99.9,29.67,WSW,248,0.0,2.0,34,0.00,,,0.00,,2013-05-16 21:20:00,
2013-05-16 17:29:00,79.0,48.0,29.67,WSW,248,4.0,4.0,34,0.00,,,0.00,,2013-05-16 21:29:00,
2013-05-16 17:38:00,79.0,49.0,29.67,WSW,248,5.0,5.0,35,0.00,,,0.00,,2013-05-16 21:38:00,
2013-05-16 17:50:00,79.0,-99.9,29.67,WSW,248,5.0,5.0,35,0.00,,,0.00,,2013-05-16 21:50:00,
2013-05-16 18:00:00,-999.0,-99.9,29.67,WSW,248,0.0,5.0,34,0.00,,,0.00,,2013-05-16 22:00:00,
2013-05-16 18:08:00,78.0,47.0,29.67,WSW,248,0.0,6.0,34,0.00,,,0.00,,2013-05-16 22:08:00,
2013-05-16 18:21:00,78.0,47.0,29.67,WSW,248,0.0,6.0,34,0.00,,,0.00,,2013-05-16 22:21:00,
2013-05-16 18:30:00,76.0,46.0,29.67,WSW,248,0.0,5.0,35,0.00,,,0.00,,2013-05-16 22:30:00,
2013-05-16 18:40:00,75.0,47.0,29.67,WSW,248,0.0,4.0,37,0.00,,,0.00,,2013-05-16 22:40:00,
2013-05-16 18:51:00,75.0,47.0,29.67,WSW,248,0.0,4.0,37,0.00,,,0.00,,2013-05-16 22:51:00,
2013-05-16 19:01:00,74.0,48.0,29.68,SW,225,0.0,7.0,40,0.00,,,0.00,,2013-05-16 23:01:00,
2013-05-16 19:06:00,73.0,48.0,29.68,WSW,248,2.0,2.0,41,0.00,,,0.00,,2013-05-16 23:06:00,
2013-05-16 19:16:00,71.0,47.0,29.69,WSW,248,0.0,7.0,42,0.00,,,0.00,,2013-05-16 23:16:00,
2013-05-16 19:24:00,71.0,47.0,29.69,WSW,248,0.0,7.0,42,0.00,,,0.00,,2013-05-16 23:24:00,
2013-05-16 19:35:00,71.0,47.0,29.70,WSW,248,0.0,4.0,43,0.00,,,0.00,,2013-05-16 23:35:00,
2013-05-16 19:45:00,71.0,47.0,29.70,WSW,248,0.0,4.0,43,0.00,,,0.00,,2013-05-16 23:45:00,
2013-05-16 19:54:00,70.0,48.0,29.70,WSW,248,0.0,0.0,45,0.00,,,0.00,,2013-05-16 23:54:00,
2013-05-16 20:02:00,69.0,47.0,29.71,WSW,248,0.0,0.0,45,0.00,,,0.00,,2013-05-17 00:02:00,
2013-05-16 20:13:00,69.0,47.0,29.71,WSW,248,0.0,0.0,45,0.00,,,0.00,,2013-05-17 00:13:00,
2013-05-16 20:22:00,68.0,46.0,29.72,SSE,158,0.0,0.0,46,0.00,,,0.00,,2013-05-17 00:22:00,
2013-05-16 20:33:00,68.0,47.0,29.72,SE,135,0.0,0.0,47,0.00,,,0.00,,2013-05-17 00:33:00,
2013-05-16 20:43:00,68.0,47.0,29.72,SE,135,0.0,0.0,47,0.00,,,0.00,,2013-05-17 00:43:00,
2013-05-16 20:53:00,67.0,47.0,29.73,SW,225,0.0,0.0,49,0.00,,,0.00,,2013-05-17 00:53:00,
2013-05-16 21:03:00,66.0,47.0,29.73,SW,225,0.0,0.0,51,0.00,,,0.00,,2013-05-17 01:03:00,
2013-05-16 21:12:00,66.0,47.0,29.73,SW,225,0.0,0.0,51,0.00,,,0.00,,2013-05-17 01:12:00,
2013-05-16 21:23:00,65.0,48.0,29.74,SSW,203,0.0,0.0,54,0.00,,,0.00,,2013-05-17 01:23:00,
2013-05-16 21:32:00,65.0,48.0,29.75,North,0,0.0,0.0,55,0.00,,,0.00,,2013-05-17 01:32:00,
2013-05-16 21:43:00,65.0,48.0,29.75,North,0,0.0,0.0,55,0.00,,,0.00,,2013-05-17 01:43:00,
2013-05-16 21:52:00,64.0,48.0,29.76,SSW,203,0.0,0.0,57,0.00,,,0.00,,2013-05-17 01:52:00,
2013-05-16 22:02:00,64.0,48.0,29.76,WSW,248,0.0,0.0,57,0.00,,,0.00,,2013-05-17 02:02:00,
2013-05-16 22:11:00,64.0,48.0,29.76,WSW,248,0.0,0.0,57,0.00,,,0.00,,2013-05-17 02:11:00,
2013-05-16 22:22:00,63.0,48.0,29.77,WSW,248,0.0,0.0,58,0.00,,,0.00,,2013-05-17 02:22:00,
2013-05-16 22:32:00,62.0,47.0,29.77,WSW,248,0.0,0.0,59,0.00,,,0.00,,2013-05-17 02:32:00,
2013-05-16 22:42:00,62.0,47.0,29.77,WSW,248,0.0,0.0,59,0.00,,,0.00,,2013-05-17 02:42:00,
2013-05-16 22:53:00,61.0,47.0,29.77,WSW,248,0.0,0.0,60,0.00,,,0.00,,2013-05-17 02:53:00,
2013-05-16 23:02:00,61.0,47.0,29.79,WSW,248,0.0,0.0,61,0.00,,,0.00,,2013-05-17 03:02:00,
2013-05-16 23:11:00,61.0,47.0,29.79,WSW,248,0.0,0.0,61,0.00,,,0.00,,2013-05-17 03:11:00,
2013-05-16 23:23:00,60.0,47.0,29.79,WSW,248,0.0,0.0,62,0.00,,,0.00,,2013-05-17 03:23:00,
2013-05-16 23:34:00,60.0,47.0,29.79,South,180,0.0,0.0,63,0.00,,,0.00,,2013-05-17 03:34:00,
2013-05-16 23:43:00,60.0,47.0,29.79,South,180,0.0,0.0,63,0.00,,,0.00,,2013-05-17 03:43:00,
2013-05-16 23:53:00,59.0,47.0,29.80,South,180,0.0,0.0,64,0.00,,,0.00,,2013-05-17 03:53:00,